Regional Weather Roundup
Issued by NWS Green Bay, WI

Home | Current Version | Previous Version | Text Only | Print | Product List | Glossary On
Versions: 1 2 3 4 5 6 7 8 9 10 11 12 13 14 15 16 17 18 19 20 21 22 23 24 25 26 27 28 29 30 31 32 33 34 35 36 37 38 39 40 41 42 43 44 45 46 47 48 49 50
000
ASUS43 KGRB 180159
RWRGRB

NORTH-CENTRAL AND NORTHEAST WISCONSIN REGIONAL WEATHER ROUNDUP
NATIONAL WEATHER SERVICE GREEN BAY WI
800 PM CST WED DEC 17 2014

WIZ005-009-010>012-018-019-180300-
NORTH CENTRAL WISCONSIN

CITY           SKY/WX    TMP DP  RH WIND       PRES   REMARKS
IRONWOOD       CLOUDY    21  18  86 N5        30.23S
MANITOWISH WTR NOT AVBL
ARBOR VITAE    NOT AVBL
EAGLE RIVER    NOT AVBL
LAND O LAKES   NOT AVBL
RHINELANDER    CLOUDY    21  17  84 N7        30.19F
PHILLIPS       NOT AVBL
ANTIGO         NOT AVBL
TOMAHAWK       NOT AVBL
MERRILL        NOT AVBL
$$

WIZ013-073-180300-
NORTHEAST WISCONSIN

CITY           SKY/WX    TMP DP  RH WIND       PRES   REMARKS
IRON MOUNTAIN  CLOUDY    24  20  84 NW10      30.18R
MARINETTE      CLOUDY    27  19  74 N9        30.19S
$$

WIZ017-030-035>037-045-180300-
CENTRAL WISCONSIN

CITY           SKY/WX    TMP DP  RH WIND       PRES   REMARKS
MEDFORD        NOT AVBL
WAUSAU         CLOUDY    22  16  78 N8        30.21S
MOSINEE        CLOUDY    21  18  86 N8        30.22F
MARSHFIELD     CLOUDY    20  13  74 NW10      30.22F WCI   9
WISC RAPIDS    CLOUDY    18  11  74 SW5       30.26R
STEVENS POINT  NOT AVBL
WAUPACA        NOT AVBL
SHAWANO        NOT AVBL
CLINTONVILLE   NOT AVBL
$$

WIZ038-039-048-051-180300-
FOX VALLEY

CITY           SKY/WX    TMP DP  RH WIND       PRES   REMARKS
NWS GREEN BAY  CLOUDY    27  19  72 NW9       30.21F
APPLETON       CLOUDY    21  16  79 W10       30.22S
OSHKOSH        MOCLDY    21  13  71 NW8       30.23S
FOND DU LAC    CLEAR     20  13  74 NW9       30.23S WCI   9
$$

WIZ022-050-052-180300-
EAST CENTRAL WISCONSIN

CITY           SKY/WX    TMP DP  RH WIND       PRES   REMARKS
STURGEON BAY   CLOUDY    27  19  74 NW13      30.20S
MANITOWOC      NOT AVBL
SHEBOYGAN      CLEAR     22  14  71 W9        30.21S
$$

LMZ563-521-522-541>543-180300-
LAKESHORE

STATION/POSITION TIME  TEMP    WIND        PRES    VSBY  WAVE
                       AIR SEA DIR/SP/G                  HT/PER
                 (UTC) (F)     (DEG/KT/KT) (MB)    (MI)  (FT/S)
SHEBOYGAN LKSHOR 0100   24 35  290/ 13/ 16 1024.2F
KEWAUNEE LKSHORE 0100   27     310/  9/ 11 1021.6R
ALGOMA MARINA    0100          320/  9/ 13   N/A
TWO RIVERS CG    0100   25                 1024.3          0
NORTHPORT PIER   0100   30     340/ 21/ 24 1021.3R
SISTER BAY LKSHO 0100          350/ 23/ 27   N/A
STURGEON BAY CG  0100   28     290/  9     1022.6      6   1
CHAMBERS ISLAND  0100   28     300/ 10/ 15 1022.0R
MENOMINEE LKSHOR 0100   27     290/  8/ 13 1023.1R
$$


USA.gov is the U.S. government's official web portal to all federal, state and local government web resources and services.